{"data":{"norad_id":52873,"epoch":"2026-05-25T01:32:25.889856Z","epoch_age_seconds":65356,"freshness":"FRESH","line1":"1 52873U 22062AV  26145.06418854  .00001536  00000+0  11463-3 0  9993","line2":"2 52873  53.2129  31.2626 0001848  87.9771 272.1433 15.08835329217599","mean_motion":15.08835329,"eccentricity":0.0001848,"inclination_deg":53.2129,"raan_deg":31.2626,"arg_perigee_deg":87.9771,"mean_anomaly_deg":272.1433,"bstar":0.00011463,"rev_number":21759,"period_min":95.437850130032,"perigee_km":538.47923944493,"apogee_km":541.03609331362,"semimajor_km":6917.8946663793,"source":"CELESTRAK","updated_at":"2026-05-25T13:38:17.269669Z"}}